| time (UTC) | temp F | wind direction | speed MPH | gust MPH | rain 1hr in | rain 24hr in | rain mn in | humidity % | barometer mb |
| 20260504221533 | 71 | 201 | 2.0 | 9.0 | 0.00 | 0.00 | 0.00 | 47 | 1014.9 |
| 20260504220040 | 70 | 234 | 5.0 | 16.0 | 0.00 | 0.00 | 0.00 | 47 | 1015.1 |
| 20260504214541 | 71 | 157 | 3.0 | 11.0 | 0.00 | 0.00 | 0.00 | 49 | 1015.2 |
| 20260504213035 | 71 | 199 | 5.0 | 10.0 | 0.00 | 0.00 | 0.00 | 48 | 1015.2 |
| 20260504211536 | 71 | 203 | 4.0 | 12.0 | 0.00 | 0.00 | 0.00 | 48 | 1015.4 |
| 20260504210031 | 70 | 191 | 3.0 | 13.0 | 0.00 | 0.00 | 0.00 | 47 | 1015.3 |
| 20260504204531 | 71 | 255 | 7.0 | 12.0 | 0.00 | 0.00 | 0.00 | 46 | 1015.6 |
| 20260504203032 | 70 | 207 | 5.0 | 11.0 | 0.00 | 0.00 | 0.00 | 47 | 1015.3 |
| 20260504201529 | 71 | 178 | 7.0 | 14.0 | 0.00 | 0.00 | 0.00 | 48 | 1015.4 |
| 20260504200027 | 70 | 216 | 5.0 | 11.0 | 0.00 | 0.00 | 0.00 | 50 | 1015.6 |
| 20260504194524 | 69 | 215 | 6.0 | 11.0 | 0.00 | 0.00 | 0.00 | 50 | 1015.8 |
| 20260504193025 | 69 | 262 | 2.0 | 10.0 | 0.00 | 0.00 | 0.00 | 51 | 1015.8 |
| 20260504191523 | 68 | 249 | 6.0 | 12.0 | 0.00 | 0.00 | 0.00 | 51 | 1015.8 |
| 20260504190019 | 68 | 184 | 4.0 | 8.0 | 0.00 | 0.00 | 0.00 | 53 | 1016.0 |
| 20260504184519 | 67 | 245 | 5.0 | 11.0 | 0.00 | 0.00 | 0.00 | 52 | 1016.2 |
| 20260504183016 | 66 | 178 | 3.0 | 8.0 | 0.00 | 0.00 | 0.00 | 56 | 1016.2 |
| 20260504181523 | 66 | 268 | 3.0 | 8.0 | 0.00 | 0.00 | 0.00 | 59 | 1016.3 |
| 20260504180011 | 65 | 189 | 1.0 | 7.0 | 0.00 | 0.00 | 0.00 | 59 | 1016.3 |
| 20260504174509 | 64 | 229 | 3.0 | 8.0 | 0.00 | 0.00 | 0.00 | 61 | 1016.2 |
| 20260504173009 | 65 | 160 | 2.0 | 11.0 | 0.00 | 0.00 | 0.00 | 62 | 1016.2 |
| 20260504171508 | 65 | 204 | 1.0 | 10.0 | 0.00 | 0.00 | 0.00 | 62 | 1016.1 |
| 20260504081507 | 60 | 180 | 2.0 | 7.0 | 0.00 | 0.01 | 0.00 | 76 | 1015.5 |
| 20260504044552 | 61 | 195 | 0.0 | 5.0 | 0.00 | 0.01 | 0.01 | 70 | 1015.0 |
| 20260504043049 | 61 | 220 | 0.0 | 4.0 | 0.00 | 0.01 | 0.01 | 69 | 1015.0 |
| 20260504041547 | 61 | 201 | 1.0 | 6.0 | 0.00 | 0.01 | 0.01 | 69 | 1015.0 |
| 20260504040048 | 61 | 238 | 1.0 | 5.0 | 0.00 | 0.01 | 0.01 | 69 | 1014.5 |
| 20260504034546 | 61 | 190 | 0.0 | 5.0 | 0.00 | 0.01 | 0.01 | 68 | 1014.7 |
| 20260504033052 | 61 | 220 | 1.0 | 7.0 | 0.00 | 0.01 | 0.01 | 68 | 1014.9 |
| 20260504031545 | 62 | 213 | 2.0 | 6.0 | 0.00 | 0.01 | 0.01 | 67 | 1014.7 |
| 20260504030046 | 62 | 234 | 1.0 | 5.0 | 0.00 | 0.01 | 0.01 | 66 | 1014.5 |
| 20260504024554 | 62 | 184 | 1.0 | 5.0 | 0.00 | 0.01 | 0.01 | 65 | 1014.3 |
| 20260504023044 | 62 | 272 | 2.0 | 6.0 | 0.00 | 0.01 | 0.01 | 65 | 1014.5 |
| 20260504021549 | 62 | 207 | 1.0 | 7.0 | 0.00 | 0.01 | 0.01 | 64 | 1014.4 |
| 20260504020046 | 63 | 188 | 5.0 | 9.0 | 0.00 | 0.01 | 0.01 | 64 | 1014.2 |
| 20260504014539 | 63 | 238 | 3.0 | 9.0 | 0.00 | 0.01 | 0.01 | 63 | 1014.1 |
| 20260504013047 | 64 | 190 | 4.0 | 9.0 | 0.00 | 0.01 | 0.01 | 62 | 1014.1 |
| 20260504011540 | 65 | 247 | 3.0 | 10.0 | 0.00 | 0.01 | 0.01 | 61 | 1013.7 |
| 20260504010037 | 66 | 214 | 4.0 | 10.0 | 0.00 | 0.01 | 0.01 | 59 | 1013.6 |
| 20260504004543 | 67 | 180 | 6.0 | 12.0 | 0.00 | 0.01 | 0.01 | 57 | 1013.1 |
| 20260504003036 | 68 | 222 | 4.0 | 10.0 | 0.00 | 0.01 | 0.01 | 55 | 1012.9 |
| 20260504001537 | 69 | 160 | 3.0 | 9.0 | 0.00 | 0.01 | 0.01 | 54 | 1012.6 |
| 20260504000035 | 70 | 231 | 3.0 | 8.0 | 0.00 | 0.01 | 0.01 | 53 | 1012.5 |
| 20260503234535 | 72 | 199 | 4.0 | 10.0 | 0.00 | 0.01 | 0.01 | 52 | 1012.6 |
| 20260503233034 | 72 | 144 | 4.0 | 11.0 | 0.00 | 0.01 | 0.01 | 53 | 1012.5 |
| 20260503231532 | 72 | 159 | 5.0 | 11.0 | 0.00 | 0.01 | 0.01 | 53 | 1012.9 |
| 20260503230036 | 71 | 166 | 3.0 | 9.0 | 0.00 | 0.01 | 0.01 | 55 | 1012.9 |
| 20260503224529 | 71 | 144 | 3.0 | 7.0 | 0.00 | 0.01 | 0.01 | 56 | 1013.0 |
| 20260503223027 | 69 | 180 | 5.0 | 10.0 | 0.00 | 0.01 | 0.01 | 58 | 1012.9 |